Back to catalog

DELTA 1 DEB

AliveSSO
NORAD 21547·DEBRIS·🇺🇸 United States

Launched Jun 12, 1975 from Vandenberg Space Force Base

Loading…

Next Passes (next 24 hours)

TLE

FreshSource: Space-Track

Epoch: Sep 14, 2026, 03:24 UTC

1 21547U 75052HB  26257.14223545  .00000525  00000-0  64819-3 0  9999
2 21547  99.7355 127.1644 0249726 356.0857 154.5277 13.57690415743318

Track DELTA 1 DEB in real time with AllMySat

Download on the App Store